Stations météo

réclame
Mon MeteoGroup
Feuchtwangen-Heilbronn, Allemagne (10756): Température de l'air & dewpoint: 10.06.2019 03:00:00 - 16.06.2019 03:00:00 (CEST)Feuchtwangen-Heilbronn, Allemagne (10756): Température de l'air 5cm & Température de l'air -5cm: 10.06.2019 03:00:00 - 16.06.2019 03:00:00 (CEST)Feuchtwangen-Heilbronn, Allemagne (10756): Température de l'air -20cm & Température de l'air -100cm: 10.06.2019 03:00:00 - 16.06.2019 03:00:00 (CEST)Feuchtwangen-Heilbronn, Allemagne (10756): Vitesse du vent & gusts: 10.06.2019 03:00:00 - 16.06.2019 03:00:00 (CEST)Feuchtwangen-Heilbronn, Allemagne (10756): Direction du vent: 10.06.2019 03:00:00 - 16.06.2019 03:00:00 (CEST)Feuchtwangen-Heilbronn, Allemagne (10756): reduced air pressure: 10.06.2019 03:00:00 - 16.06.2019 03:00:00 (CEST)Feuchtwangen-Heilbronn, Allemagne (10756): visibility: 10.06.2019 03:00:00 - 16.06.2019 03:00:00 (CEST)Feuchtwangen-Heilbronn, Allemagne (10756): Ensoleillement: 10.06.2019 03:00:00 - 16.06.2019 03:00:00 (CEST)Feuchtwangen-Heilbronn, Allemagne (10756): Quantités de précipitations: 10.06.2019 03:00:00 - 16.06.2019 03:00:00 (CEST)
Date & Time tt [°C] td [°C] tt 5cm [°C] tt -5cm [°C] tt -20cm [°C] tt -100cm [°C] ff [km/h] ff [knt] fx [km/h] fx [knt] dd ppp [hPa] vv [km] sd [min] rr [mm]
16.06.2019 03:00:00 14,9 14,7 14,7 18,3 20,4 14,8 5 3 21 11 WNW 1018,4 10 0 7,4
16.06.2019 02:00:00 15,4 15,1 15,3 19,0 20,6 14,8 4 2 10 5 E 1018,5 11 0 4,9
16.06.2019 01:00:00 15,7 14,8 15,4 19,5 20,9 14,8 5 3 11 6 SSE 1017,8 10 0 1,1
16.06.2019 00:00:00 16,5 13,8 15,7 19,9 21,2 14,8 7 4 10 6 S 1017,2 44 0 0,0
15.06.2019 23:00:00 15,8 13,6 14,8 20,5 21,4 14,8 6 3 8 4 N 1015,8 36 0 0,0
15.06.2019 22:00:00 16,4 13,5 13,2 21,5 21,6 14,8 4 2 13 7 N 1015,6 64 3 0,0
15.06.2019 21:00:00 18,5 14,0 17,8 22,9 21,7 14,8 9 5 18 10 NW 1014,9 67 60 0,0
15.06.2019 20:00:00 20,9 13,9 22,2 23,7 21,7 14,8 6 4 15 8 NW 1014,7 58 26 0,0
15.06.2019 19:00:00 20,7 13,3 22,9 24,7 21,6 14,8 6 3 22 12 NW 1014,8 50 46 0,0
15.06.2019 18:00:00 20,8 13,0 23,1 25,6 21,4 14,8 12 6 26 14 WNW 1014,9 64 44 0,0
15.06.2019 17:00:00 21,3 13,0 25,8 25,7 21,1 14,8 16 9 27 14 W 1015,0 75 14 0,0
15.06.2019 16:00:00 21,2 13,9 26,9 26,8 20,7 14,8 16 8 34 18 W 1015,2 46 42 0,0
15.06.2019 15:00:00 20,7 13,5 25,3 25,9 20,4 14,7 19 11 37 20 WNW 1015,1 60 31 0,0
15.06.2019 14:00:00 20,4 13,3 24,6 25,7 20,0 14,7 23 12 34 19 WNW 1015,3 47 35 0,0
15.06.2019 13:00:00 19,8 12,4 23,5 24,9 19,5 14,7 28 15 40 22 WNW 1015,1 50 31 0,0
15.06.2019 12:00:00 20,0 13,4 23,2 24,3 19,1 14,7 21 12 39 21 WNW 1014,6 50 40 0,0
15.06.2019 11:00:00 19,7 13,2 24,9 22,3 18,9 14,7 25 13 43 23 W 1014,1 65 55 0,0
15.06.2019 10:00:00 19,6 14,4 23,2 20,3 18,8 14,7 23 13 43 23 W 1013,1 53 36 0,0
15.06.2019 09:00:00 18,2 13,4 19,5 19,1 18,8 14,7 20 11 48 26 W 1012,5 48 43 0,0
15.06.2019 08:00:00 18,1 13,5 18,6 18,0 18,9 14,7 22 12 42 23 W 1011,5 43 37 0,0
15.06.2019 07:00:00 16,7 13,9 17,0 17,3 19,1 14,7 11 6 21 11 SSW 1010,5 35 4 0,0
15.06.2019 06:00:00 14,4 13,5 14,2 17,2 19,3 14,7 3 2 6 3 S 1009,4 35 0 0,0
15.06.2019 05:00:00 14,4 13,4 13,5 17,5 19,6 14,7 2 1 10 5 NNW 1008,9 27 0 0,0
15.06.2019 04:00:00 14,7 13,5 12,5 18,0 19,8 14,7 2 1 10 6 SW 1009,1 37 0 0,0
15.06.2019 03:00:00 15,9 14,0 14,9 18,5 20,1 14,7 4 2 11 6 E 1009,3 45 0 0,0
15.06.2019 02:00:00 15,4 14,1 15,1 18,8 20,4 14,7 5 3 11 6 SW 1010,5 39 0 0,0
15.06.2019 01:00:00 15,6 13,6 14,2 19,4 20,7 14,7 2 1 9 5 S 1010,8 41 0 0,0
15.06.2019 00:00:00 17,7 13,8 14,5 20,1 20,9 14,7 5 3 13 7 N 1010,8 49 0 0,0
14.06.2019 23:00:00 18,3 14,3 15,9 20,9 21,2 14,7 8 4 16 9 NE 1011,2 51 0 0,0
14.06.2019 22:00:00 19,5 14,0 18,1 22,1 21,4 14,7 9 5 14 8 NE 1011,9 58 0 0,0
14.06.2019 21:00:00 20,6 13,2 19,7 23,2 21,5 14,7 9 5 24 13 NNE 1012,6 60 0 0,0
14.06.2019 20:00:00 22,2 13,0 22,0 24,6 21,4 14,7 16 9 30 16 N 1012,7 60 27 0,0
14.06.2019 19:00:00 23,8 16,6 24,5 25,8 21,3 14,7 13 7 21 11 NNW 1012,7 53 0 0,0
14.06.2019 18:00:00 24,1 17,2 25,3 26,6 20,9 14,7 10 6 22 12 NW 1013,0 44 4 0,0
14.06.2019 17:00:00 26,6 14,1 30,4 27,7 20,5 14,7 8 4 16 9 NNW 1013,4 57 10 0,0
14.06.2019 16:00:00 26,9 13,0 31,1 28,1 19,9 14,7 6 3 13 7 WNW 1014,0 56 48 0,0
14.06.2019 15:00:00 26,7 14,9 29,9 27,5 19,2 14,7 7 4 24 13 SW 1014,4 43 20 0,0
14.06.2019 14:00:00 26,2 12,9 29,1 27,2 18,5 14,7 13 7 24 13 S 1014,8 54 58 0,0
14.06.2019 13:00:00 26,1 11,8 29,7 25,4 17,9 14,7 16 8 29 16 SSE 1015,2 68 60 0,0
14.06.2019 12:00:00 25,2 13,9 28,4 22,3 17,5 14,7 16 9 35 19 SSE 1014,9 45 44 0,0
14.06.2019 11:00:00 23,1 11,3 23,6 21,0 17,1 14,7 24 13 39 21 SE 1015,3 60 49 0,0
14.06.2019 10:00:00 21,5 12,4 22,5 19,1 16,9 14,7 16 8 26 14 ESE 1015,6 67 50 0,0
14.06.2019 09:00:00 20,3 12,3 21,9 17,6 16,8 14,7 12 6 23 12 ESE 1015,8 57 60 0,0
14.06.2019 08:00:00 16,6 13,5 18,6 15,7 16,9 14,7 3 2 6 3 SW 1016,7 37 60 0,0
14.06.2019 07:00:00 13,8 11,7 13,5 14,0 17,1 14,7 0 0 6 3 N 1017,2 29 43 0,0
14.06.2019 06:00:00 10,3 10,3 8,2 13,6 17,5 14,7 2 1 8 5 E 1018,1 12 0 0,0
14.06.2019 05:00:00 9,8 9,8 6,9 14,0 17,8 14,7 3 2 6 4 NNE 1018,2 17 0 0,0
14.06.2019 04:00:00 10,5 10,3 7,1 14,6 18,2 14,7 0 0 5 3 N 1018,0 15 0 0,0
14.06.2019 03:00:00 10,8 10,6 7,6 15,2 18,6 14,7 5 3 7 4 NNE 1018,0 25 0 0,0
14.06.2019 02:00:00 11,1 10,6 8,1 15,9 19,0 14,7 3 2 6 4 NNE 1017,9 26 0 0,0
14.06.2019 01:00:00 12,6 12,2 9,0 16,8 19,3 14,7 3 2 4 2 NNE 1017,5 35 0 0,0
14.06.2019 00:00:00 13,4 12,5 9,7 17,8 19,7 14,7 0 0 3 2 N 1017,2 46 0 0,0
13.06.2019 23:00:00 14,3 12,9 10,9 19,0 19,9 14,7 3 2 5 3 NNE 1016,8 57 0 0,0
13.06.2019 22:00:00 16,4 13,3 12,6 20,5 20,1 14,7 0 0 6 3 N 1016,0 66 6 0,0
13.06.2019 21:00:00 19,6 13,4 17,6 22,2 20,1 14,7 6 3 15 8 NNW 1014,4 63 59 0,0
13.06.2019 20:00:00 21,0 12,0 20,4 23,1 20,0 14,7 9 5 13 7 SW 1013,8 58 44 0,0
13.06.2019 19:00:00 23,4 10,4 24,2 23,8 19,7 14,7 3 1 12 6 WSW 1012,9 75 51 0,0
13.06.2019 18:00:00 22,5 10,3 24,9 24,7 19,4 14,7 8 4 13 7 ESE 1012,8 39 60 0,0
13.06.2019 17:00:00 22,2 10,5 26,8 24,9 19,0 14,7 7 4 14 7 N 1013,1 71 55 0,0
13.06.2019 16:00:00 21,7 10,4 24,6 25,3 18,4 14,7 8 4 17 9 S 1013,4 56 51 0,0
13.06.2019 15:00:00 21,6 12,3 25,6 25,3 17,9 14,7 9 5 17 9 SW 1013,6 65 60 0,0
13.06.2019 14:00:00 21,1 12,6 25,2 23,8 17,3 14,7 8 4 16 9 SSE 1013,8 75 47 0,0
13.06.2019 13:00:00 20,2 11,7 25,3 21,9 16,9 14,7 5 3 11 6 WSW 1014,2 51 40 0,0
13.06.2019 12:00:00 18,7 11,3 22,0 20,4 16,6 14,7 4 2 14 8 W 1014,8 47 21 0,0
13.06.2019 11:00:00 17,2 10,4 18,6 19,9 16,2 14,7 8 4 16 9 E 1015,2 39 29 0,0
13.06.2019 10:00:00 16,8 12,3 20,2 18,7 16,0 14,7 6 3 11 6 SE 1015,2 45 31 0,0
13.06.2019 09:00:00 15,3 12,9 17,0 17,0 15,8 14,7 6 3 8 5 SSW 1015,4 18 44 0,0
13.06.2019 08:00:00 14,3 12,5 15,7 15,2 15,9 14,8 3 2 5 3 SSW 1015,6 11 19 0,0
13.06.2019 07:00:00 12,5 12,4 12,9 14,3 16,0 14,8 3 2 4 2 W 1015,7 1,1 0 0,0
13.06.2019 06:00:00 11,7 11,6 10,9 14,2 16,1 14,8 3 2 8 4 N 1015,6 0,5 0 0,0
13.06.2019 05:00:00 12,0 12,0 11,7 14,3 16,2 14,8 3 1 4 2 S 1015,2 0,7 0 0,0
13.06.2019 04:00:00 12,5 12,3 12,3 14,5 16,4 14,8 5 3 8 4 E 1015,0 5 0 0,0
13.06.2019 03:00:00 12,1 11,9 11,9 14,7 16,5 14,8 5 3 11 6 ENE 1015,2 3,1 0 0,0
13.06.2019 02:00:00 12,7 12,5 12,5 14,9 16,7 14,8 4 2 16 8 ESE 1015,5 6 0 1,1
13.06.2019 01:00:00 12,9 12,5 12,7 15,1 16,8 14,8 8 4 14 8 SSE 1015,6 6 0 0,9
13.06.2019 00:00:00 12,4 12,0 12,3 15,4 17,0 14,8 3 2 6 3 N 1014,8 29 0 0,0
12.06.2019 23:00:00 12,2 11,3 11,7 15,8 17,1 14,8 3 2 6 3 NE 1014,3 45 0 0,0
12.06.2019 22:00:00 13,8 12,0 12,9 16,6 17,1 14,8 2 1 6 3 ESE 1013,6 55 7 0,0
12.06.2019 21:00:00 15,6 11,2 14,7 17,2 17,1 14,8 6 3 18 10 WNW 1012,7 75 60 0,0
12.06.2019 20:00:00 16,0 10,4 16,2 17,8 17,0 14,8 12 7 22 12 WNW 1012,2 59 49 0,0
12.06.2019 19:00:00 15,9 11,6 17,4 17,5 16,9 14,8 11 6 24 13 WNW 1012,1 57 15 0,0
12.06.2019 18:00:00 14,7 12,1 16,3 17,1 16,9 14,8 9 5 21 11 W 1012,4 34 3 0,0
12.06.2019 17:00:00 13,4 11,9 14,7 16,0 17,0 14,8 11 6 20 11 W 1012,6 27 1 0,3
12.06.2019 16:00:00 11,9 11,1 12,1 15,7 17,2 14,8 17 9 31 17 WNW 1012,6 18 0 1,3
12.06.2019 15:00:00 12,2 10,9 12,5 16,2 17,3 14,8 11 6 25 14 WNW 1012,6 24 0 1,0
12.06.2019 14:00:00 12,2 10,7 12,4 16,4 17,4 14,8 21 11 44 24 WNW 1011,9 34 0 0,2
12.06.2019 13:00:00 12,8 10,6 13,7 17,1 17,4 14,8 29 16 50 27 WNW 1011,3 55 0 0,0
12.06.2019 12:00:00 14,2 13,3 14,7 18,6 17,3 14,8 31 17 41 22 WNW 1009,6 18 0 0,0
12.06.2019 11:00:00 17,4 15,1 19,7 19,3 17,1 14,8 15 8 24 13 W 1006,8 18 0 0,0
12.06.2019 10:00:00 17,2 15,4 18,4 18,5 16,9 14,8 6 4 12 7 W 1006,6 21 0 0,0
12.06.2019 09:00:00 16,6 14,6 18,6 17,1 16,9 14,8 5 3 11 6 E 1006,3 20 0 0,0
12.06.2019 08:00:00 16,0 14,4 17,1 16,4 16,9 14,8 5 3 8 5 NNE 1006,9 22 0 0,0
12.06.2019 07:00:00 15,1 13,9 15,9 15,8 17,0 14,8 4 2 7 4 SSW 1007,5 17 0 0,0
12.06.2019 06:00:00 14,4 13,3 14,3 15,4 17,1 14,8 5 3 13 7 E 1007,5 21 0 0,0
12.06.2019 05:00:00 13,9 13,3 13,4 15,4 17,2 14,8 8 5 13 7 NNW 1008,0 17 0 0,0
12.06.2019 04:00:00 13,7 13,4 13,4 15,5 17,4 14,8 6 3 10 6 WSW 1008,8 16 0 0,0
12.06.2019 03:00:00 13,6 13,0 13,0 15,7 17,6 14,8 5 3 9 5 NW 1008,9 23 0 0,0
12.06.2019 02:00:00 13,8 13,4 13,2 16,0 17,8 14,8 6 3 9 5 WSW 1009,8 21 0 0,0
12.06.2019 01:00:00 14,3 13,4 13,6 16,3 17,9 14,8 7 4 16 9 SW 1009,7 31 0 0,0
12.06.2019 00:00:00 15,0 14,0 14,1 16,8 18,1 14,7 10 5 16 8 W 1008,9 37 0 0,0
11.06.2019 23:00:00 15,7 14,2 14,9 17,4 18,3 14,7 9 5 18 10 WNW 1009,1 44 0 0,0
11.06.2019 22:00:00 16,8 14,1 16,5 17,8 18,4 14,7 10 5 14 8 WNW 1009,9 50 0 0,0
11.06.2019 21:00:00 17,3 13,8 16,8 18,3 18,5 14,7 6 3 12 6 WNW 1009,6 48 0 0,0
11.06.2019 20:00:00 17,5 13,9 17,4 18,7 18,6 14,7 9 5 21 12 NW 1009,4 62 0 0,0
11.06.2019 19:00:00 17,6 13,8 18,0 19,2 18,6 14,7 11 6 22 12 NW 1009,1 43 0 0,0
11.06.2019 18:00:00 18,0 13,7 19,0 19,9 18,6 14,7 14 7 23 12 NNW 1009,0 55 0 0,0
11.06.2019 17:00:00 18,1 14,0 19,4 20,6 18,4 14,7 11 6 19 11 N 1009,3 57 0 0,0
11.06.2019 16:00:00 18,5 13,9 20,3 21,5 18,2 14,7 13 7 22 12 N 1009,2 52 1 0,0
11.06.2019 15:00:00 18,5 13,5 22,0 21,4 17,9 14,7 11 6 19 10 N 1009,4 69 3 0,0
11.06.2019 14:00:00 18,2 12,7 21,8 20,6 17,7 14,7 8 4 17 9 N 1009,8 55 0 0,0
11.06.2019 13:00:00 17,9 12,7 20,7 19,6 17,5 14,7 7 4 16 8 NE 1009,9 50 0 0,0
11.06.2019 12:00:00 16,7 12,9 18,6 19,3 17,3 14,7 7 4 14 8 ENE 1010,5 57 1 0,0
11.06.2019 11:00:00 16,5 12,9 21,4 19,2 17,1 14,7 7 4 15 8 NNW 1010,6 62 11 0,0
11.06.2019 10:00:00 15,8 12,0 19,5 18,7 16,9 14,7 9 5 16 8 NE 1010,9 70 48 0,0
11.06.2019 09:00:00 15,0 12,5 17,4 16,6 16,9 14,7 10 5 16 9 NE 1010,9 75 19 0,0
11.06.2019 08:00:00 13,6 12,4 13,7 15,7 17,0 14,7 6 3 17 9 NNE 1011,5 55 7 0,0
11.06.2019 07:00:00 12,9 12,4 13,1 15,2 17,2 14,7 6 4 26 14 NNE 1011,8 10 0 1,0
11.06.2019 06:00:00 12,8 12,3 12,7 15,3 17,3 14,7 12 6 26 14 W 1013,3 6 0 1,9
11.06.2019 05:00:00 13,2 12,7 13,0 15,6 17,5 14,7 17 9 28 15 W 1012,6 8 0 2,8
11.06.2019 04:00:00 13,7 13,1 13,5 15,9 17,6 14,7 10 5 18 10 WNW 1011,4 17 0 0,0
11.06.2019 03:00:00 13,8 13,0 13,5 16,2 17,8 14,7 9 5 29 15 NW 1011,1 23 0 0,0
11.06.2019 02:00:00 14,8 14,2 14,6 16,4 17,9 14,7 4 2 17 9 WNW 1012,3 16 0 0,0
11.06.2019 01:00:00 14,9 14,5 14,8 16,5 18,0 14,7 9 5 19 10 NNW 1011,3 12 0 0,0
11.06.2019 00:00:00 14,8 14,8 14,8 16,6 18,2 14,7 11 6 17 9 W 1011,3 2,8 0 0,0
10.06.2019 23:00:00 14,7 14,7 14,3 16,8 18,4 14,7 4 2 8 4 SW 1010,6 0,9 0 0,1
10.06.2019 22:00:00 15,2 15,0 14,3 17,4 18,6 14,7 5 3 8 4 WNW 1011,6 9 0 0,0
10.06.2019 21:00:00 15,4 15,1 14,8 17,9 18,7 14,7 7 4 11 6 NW 1011,9 11 0 0,2
10.06.2019 20:00:00 15,7 15,4 15,7 18,2 18,9 14,7 4 2 9 5 SSE 1012,4 12 0 1,4
10.06.2019 19:00:00 16,0 15,3 15,9 18,5 19,0 14,7 4 2 14 8 NNE 1011,7 16 0 0,1
10.06.2019 18:00:00 16,1 15,7 16,1 19,2 19,1 14,7 7 4 18 10 E 1012,4 11 0 3,0
10.06.2019 17:00:00 16,5 15,6 16,3 20,1 19,1 14,7 7 4 16 9 W 1013,5 24 0 1,0
10.06.2019 16:00:00 17,1 15,4 16,8 21,2 18,9 14,7 8 4 22 12 WSW 1012,6 4,6 0 0,8
10.06.2019 15:00:00 18,8 14,4 19,8 23,0 18,6 14,7 4 2 14 8 SW 1012,6 60 3 0,0
10.06.2019 14:00:00 19,6 13,1 23,3 23,1 18,1 14,7 10 5 16 9 E 1012,1 52 10 0,0
10.06.2019 13:00:00 19,4 13,3 25,4 21,8 17,8 14,7 4 2 21 11 W 1013,3 59 40 0,0
10.06.2019 12:00:00 16,8 12,7 19,1 19,1 17,7 14,7 10 5 18 10 NNW 1014,3 57 5 0,0
10.06.2019 11:00:00 16,2 13,7 17,2 17,7 17,6 14,7 4 2 11 6 W 1015,4 36 0 0,1
10.06.2019 10:00:00 15,7 13,4 16,0 17,2 17,7 14,7 3 2 11 6 WSW 1015,7 26 0 0,0
10.06.2019 09:00:00 15,0 12,9 15,7 16,8 17,7 14,7 8 4 11 6 W 1015,9 37 0 0,0
10.06.2019 08:00:00 14,8 13,6 15,4 16,3 17,8 14,7 2 1 8 5 SW 1015,2 29 0 0,0
10.06.2019 07:00:00 13,4 12,8 13,4 15,9 18,0 14,7 7 4 9 5 E 1015,6 29 0 0,0
10.06.2019 06:00:00 12,4 11,9 11,7 15,8 18,2 14,7 4 2 8 4 WNW 1016,6 23 0 0,0
10.06.2019 05:00:00 12,8 12,0 12,0 16,0 18,4 14,7 5 3 6 4 SE 1016,1 38 0 0,0
10.06.2019 04:00:00 13,3 12,4 12,2 16,5 18,6 14,6 2 1 5 3 SE 1016,4 38 0 0,0
10.06.2019 03:00:00 14,8 12,3 12,7 17,2 18,8 14,6 2 1 7 4 SSE 1016,1 58 0 0,0

tt = Température de l'air
td = dewpoint
tt 5cm = Température de l'air 5cm
tt -5cm = Température de l'air -5cm
tt -20cm = Température de l'air -20cm
tt -100cm = Température de l'air -100cm
ff = Vitesse du vent
fx = gusts
dd = Direction du vent
ppp = reduced air pressure
vv = visibility
sd = Ensoleillement
rr = Quantités de précipitations

stations d'obs. à proximité